Карточка аэропорта UATT

Внимание!
Информация на этой странице в стадии наполнения.
Если вы не увидели какой-то информации, или заметили неточность - пожалуйста сообщите нам!
Спасибо!
Команда RU-STAFF
Название аэропортаАктобе
Название аэропорта (англ.)Aktobe
Превышение738 ft. (224.9 m.)
Координаты50°14.748', 57°12.402'
Высота перехода10000ft
Эшелон переходаFL120, QNH<733:FL130
Коды ответчика3440-3447, 3540-3547
Зона ОрВДАктобе РПИ (UATT)
Данные METARUATT 231730Z 09006MPS 9999 FEW070CB 19/11 Q1012 TEMPO VRB14MPS TS SQ RMK QFE740/0986 FLASHES
Проноз погоды (TAF)UATT 231700Z 2318/2418 10007MPS 9999 BKN011 BKN020CB TX22/2412Z TN13/2400Z TEMPO 2318/2403 VRB13MPS 2000 TSRA SQ TEMPO 2406/2416 07012MPS 3100 -TSRA
NOTAMshow/hide NOTAM
AWOS   TABLE

Информация о ВПП

ВПП Длина ВПП (м.) Покрытие Курс ВПП Частота ILS
133202Бетон135111.7
313202Бетон315111.7

Диспетчерские позиции




Спутниковое изображение